Home   Weather   Grenoble   Past weeks

Flag for France Past Weather in Grenoble, Rhône-Alpes, France — Yesterday and Last 2 Weeks

Now
32 °F

Clear.


Feels Like: 25 °F
Forecast: 37 / 58 °F
Wind: 8 mph from Southeast

Location: Grenoble / St. Geoirs

Current Time: Dec 4, 2016 at 7:18:30 am

Latest Report: Dec 4, 2016 at 7:00 am


Visibility: 5 mi

Pressure: 30.12 "Hg

Humidity: 93%

Dew Point: 30 °F

Location of GrenobleLocation

Past Weather in Grenoble — Graph

°F

Grenoble Temperature Yesterday

Maximum temperature yesterday: 39 °F (at 2:30 pm)
Minimum temperature yesterday: 27 °F (at 2:30 am)
Average temperature yesterday: 33 °F

High & Low Weather Summary for the Past Weeks

 TemperatureHumidityPressure
High63 °F (Nov 20, 3:00 pm)100% (Nov 22, 9:30 am)30.54 "Hg (Nov 22, 9:30 am)
Low23 °F (Dec 2, 4:00 am)45% (Nov 20, 6:00 pm)29.56 "Hg (Nov 21, 8:00 am)
Average44 °F85%30.01 "Hg
* Reported Nov 19 6:00 am — Dec 4 6:00 am, Grenoble, Weather by CustomWeather, © 2016

Note: Actual official high and low records may vary slightly from our data, if they occured in-between our weather recording intervals... More about our weather records

Advertising

Grenoble Weather History for the Previous 24 Hours

Scroll right to see more
 ConditionsComfort  
Time TempWeatherWind HumidityBarometerVisibility
6:00 am
Sun, Dec 4
34 °FClear.13 mph87%30.12 "Hg4 mi
5:30 am32 °FClear.9 mph93%30.12 "Hg4 mi
5:00 am32 °FClear.12 mph93%30.12 "Hg4 mi
4:30 am34 °FClear.13 mph87%30.12 "Hg4 mi
4:00 am36 °FClear.14 mph81%30.12 "Hg4 mi
3:30 am36 °FClear.14 mph81%30.12 "Hg5 mi
3:00 am36 °FPassing clouds.13 mph81%30.12 "Hg4 mi
2:30 am36 °FClear.15 mph87%30.12 "Hg5 mi
2:00 am36 °FPassing clouds.14 mph87%30.12 "Hg5 mi
1:30 am36 °FPassing clouds.15 mph87%30.09 "Hg5 mi
1:00 am36 °FPassing clouds.14 mph87%30.09 "Hg5 mi
12:30 am36 °FPassing clouds.14 mph87%30.09 "Hg4 mi
12:00 am36 °FPassing clouds.14 mph87%30.09 "Hg4 mi
11:30 pm
Sat, Dec 3
36 °FPassing clouds.15 mph87%30.09 "Hg5 mi
11:00 pm36 °FPassing clouds.14 mph87%30.09 "Hg4 mi
10:30 pm36 °FPassing clouds.13 mph87%30.09 "Hg4 mi
10:00 pm36 °FPassing clouds.13 mph87%30.09 "Hg5 mi
9:30 pm36 °FPassing clouds.12 mph87%30.09 "Hg5 mi
9:00 pm36 °FPassing clouds.13 mph87%30.09 "Hg4 mi
8:30 pm36 °FClear.13 mph87%30.09 "Hg4 mi
8:00 pm36 °FClear.14 mph87%30.09 "Hg4 mi
7:30 pm37 °FClear.15 mph81%30.07 "Hg4 mi
7:00 pm37 °FClear.14 mph81%30.07 "Hg4 mi
6:30 pm36 °FClear.10 mph87%30.07 "Hg4 mi
6:00 pm36 °FClear.10 mph87%30.07 "Hg4 mi
5:30 pm36 °FClear.12 mph87%30.07 "Hg4 mi
5:00 pm37 °FClear.12 mph81%30.07 "Hg4 mi
4:30 pm37 °FClear.13 mph81%30.04 "Hg4 mi
4:00 pm37 °FClear.12 mph87%30.04 "Hg4 mi
3:30 pm39 °FClear.13 mph81%30.04 "Hg4 mi
3:00 pm39 °FClear.13 mph81%30.04 "Hg4 mi
2:30 pm39 °FClear.10 mph81%30.04 "Hg4 mi
2:00 pm37 °FPassing clouds.12 mph87%30.07 "Hg4 mi
1:30 pm37 °FFog.9 mph87%30.07 "Hg3 mi
1:00 pm36 °FFog.10 mph93%30.07 "Hg2 mi
12:30 pm34 °FFog.8 mph93%30.09 "Hg2 mi
12:00 pm34 °FFog.8 mph93%30.09 "Hg2 mi
11:30 am34 °FFog.7 mph93%30.09 "Hg2 mi
11:00 am32 °FIce fog.6 mph100%30.09 "Hg2 mi
10:30 am32 °FIce fog.6 mph93%30.09 "Hg1 mi
10:00 am32 °FIce fog.6 mph93%30.09 "Hg1 mi
9:30 am32 °FIce fog.7 mph93%30.09 "Hg1 mi
9:00 am30 °FIce fog.7 mph100%30.09 "Hg1 mi
8:30 am30 °FIce fog.7 mph100%30.07 "Hg1 mi
8:00 am30 °FIce fog.8 mph100%30.07 "Hg2 mi
7:30 am30 °FIce fog.7 mph100%30.07 "Hg2 mi
7:00 am30 °FIce fog.8 mph100%30.07 "Hg2 mi
Weather by CustomWeather, © 2016

See weather overviewHow to use our weather pages